Theta_e
335 337 339 337 337 338 343 343 340 342 339 341 342 341 342 344 340 333 343 341 335 335 338 338 338 337 335 335 339 341 341 340 339 338 335 334 335 336 336 337 337 337 336 336 335 335 335 335 335
331 335 337 337 337 342 342 340 343 340 339 340 340 341 342 344 344 343 344 341 331 331 333 336 338 338 338 337 335 334 336 337 338 338 338 337 336 336 336 339 339 339 339 339 339 338 336 336 336
327 333 337 336 337 342 342 341 340 338 340 340 343 343 342 345 342 340 340 331 330 332 333 334 333 333 332 332 333 334 335 336 336 335 337 337 337 335 335 335 336 337 337 338 340 341 340 339 336
327 336 336 335 340 340 341 338 339 340 341 342 342 342 343 343 339 337 331 331 333 332 331 326 321 319 318 318 317 317 317 318 323 329 333 334 335 337 337 336 336 335 335 334 334 335 337 337 338
329 331 331 335 340 340 338 339 339 339 340 342 341 341 342 344 337 331 327 329 327 325 320 319 319 318 317 316 317 317 317 317 317 317 319 323 328 329 330 331 333 335 335 335 335 334 334 336 337
330 332 333 336 337 340 338 339 339 339 341 341 341 341 343 343 332 328 327 326 324 320 321 321 319 318 318 319 319 319 318 318 316 316 316 317 320 322 324 326 326 327 327 329 330 331 332 332 334
327 327 333 336 339 338 337 339 340 340 341 341 340 339 344 339 331 328 327 324 320 323 325 324 322 320 322 323 321 320 320 318 316 312 311 311 313 316 320 322 323 323 323 323 323 323 323 323 324
330 328 336 335 339 340 336 339 341 340 340 340 339 340 343 336 330 328 325 321 323 327 326 326 324 324 324 326 326 324 321 319 315 310 308 308 309 309 310 314 318 319 319 319 319 320 320 320 319
327 325 334 336 338 338 337 337 341 339 341 340 339 339 341 336 330 327 323 323 327 327 327 326 325 324 325 327 327 325 322 319 313 310 309 309 309 309 308 308 308 311 315 316 316 316 316 317 317
322 320 328 331 334 336 337 339 340 341 340 340 340 340 340 336 330 328 326 327 328 328 327 327 327 326 327 327 327 325 322 319 313 310 310 310 309 309 309 309 308 308 308 308 308 310 312 314 315
322 322 321 327 335 338 339 340 341 341 338 340 339 340 341 336 330 329 328 330 330 328 327 328 328 327 327 328 327 325 321 319 313 311 311 310 310 310 309 308 308 308 308 308 308 308 308 309 309
331 329 329 336 336 339 339 341 342 341 340 338 340 338 341 339 332 331 332 332 331 328 327 328 328 328 327 328 327 324 321 317 312 311 311 310 309 308 307 307 307 307 307 307 307 307 307 308 308
329 333 335 340 339 339 340 342 341 340 341 341 339 339 340 340 335 332 334 335 330 327 328 328 328 328 329 329 328 324 319 314 310 311 310 310 308 307 307 307 307 306 306 306 306 306 306 306 306
330 335 337 340 341 339 339 340 342 341 341 340 338 338 338 339 338 333 336 335 328 328 328 330 330 330 329 328 327 322 317 312 310 310 310 309 307 306 306 306 306 306 305 305 305 305 306 306 306
335 336 335 337 339 337 339 340 340 341 341 339 338 337 337 338 338 338 339 335 329 329 330 331 330 330 329 328 325 319 314 310 311 310 310 308 307 306 305 305 305 306 306 306 306 306 306 306 305
333 333 340 335 337 337 339 341 338 341 340 339 339 337 336 337 338 338 336 330 329 330 331 331 330 329 328 327 324 316 311 309 311 311 310 307 306 306 306 307 307 306 306 306 306 306 306 306 306
333 338 337 337 335 336 336 339 335 341 341 339 340 339 338 335 333 332 331 330 331 331 331 331 329 329 328 326 322 313 309 310 311 311 307 307 307 307 307 307 307 307 307 306 306 306 306 306 307
337 337 336 338 334 333 334 334 337 341 341 340 340 339 338 338 335 332 330 331 331 331 330 330 329 330 328 323 318 310 309 310 311 310 307 307 307 307 307 307 307 307 307 307 307 307 307 307 307
333 335 336 333 333 334 336 335 337 340 340 336 336 337 337 338 336 333 331 331 331 331 330 330 331 330 326 321 312 309 309 311 311 309 308 307 307 308 308 308 308 307 307 306 306 306 307 307 306
332 334 334 332 333 332 332 332 333 337 340 336 333 334 335 334 334 332 331 331 331 331 331 331 331 327 322 315 308 309 310 311 310 308 308 308 308 308 307 307 308 307 307 306 306 306 307 306 307
330 332 331 332 334 333 334 332 334 333 338 339 332 334 333 334 333 331 331 331 330 330 331 332 328 321 315 311 308 309 310 311 309 308 308 308 308 308 307 307 307 307 307 306 306 305 306 306 306
323 324 330 335 332 329 330 330 331 331 335 336 337 330 332 332 332 331 331 331 330 331 332 330 324 317 314 309 308 309 310 310 308 308 308 309 307 308 307 307 306 305 304 303 305 305 306 306 306
322 324 326 328 330 332 335 335 333 338 337 335 336 334 331 332 332 332 331 331 331 331 332 329 322 320 316 311 308 308 309 307 308 308 308 308 308 308 308 306 305 304 305 304 305 305 305 306 306
321 319 317 315 322 330 328 332 330 335 337 337 336 337 331 332 333 332 331 331 331 331 329 328 324 321 316 311 308 307 307 307 308 308 308 308 308 307 307 306 306 305 305 304 303 305 305 305 306
318 317 319 321 320 322 325 333 332 328 335 338 337 336 332 332 333 332 332 332 331 331 329 329 325 321 315 312 308 307 307 308 308 308 307 308 307 307 307 306 306 306 305 303 302 304 305 305 305
317 317 318 322 321 321 328 333 329 333 334 339 339 339 333 333 333 332 332 332 332 331 330 329 323 321 315 312 309 307 307 308 308 308 308 308 307 307 306 306 306 305 303 302 303 305 304 304 305
317 318 317 316 318 320 323 328 329 336 336 337 338 337 335 333 333 332 330 332 332 332 331 329 325 320 315 311 310 308 307 307 308 308 308 308 307 306 307 307 307 304 303 304 305 304 305 305 305
317 316 319 314 320 321 318 332 334 332 336 335 336 336 336 334 333 332 331 332 332 332 331 328 323 318 315 311 311 310 307 307 308 308 307 307 306 307 308 308 307 305 303 303 304 305 306 306 306
317 318 317 316 316 318 321 327 331 332 331 335 334 337 337 336 335 333 332 332 332 331 331 327 321 317 315 312 312 311 308 307 309 308 307 306 307 308 307 307 307 307 303 303 302 306 306 306 306
316 316 317 318 319 323 322 323 323 327 331 334 334 335 337 337 336 334 333 333 332 332 331 327 320 318 314 313 312 312 309 308 309 308 307 307 308 309 308 307 306 306 304 303 302 302 306 306 306
Wind_Speed
6 7 5 2 4 5 2 3 2 2 3 3 7 7 7 6 2 3 12 7 8 8 10 10 11 11 10 10 11 11 10 9 9 9 10 9 9 8 7 7 8 8 8 9 10 12 14 16 17
5 4 5 3 5 4 2 2 5 7 16 17 17 14 9 3 7 14 12 8 9 10 10 11 11 11 10 10 10 9 9 9 9 9 8 8 7 7 7 6 7 8 11 11 12 13 15 15 17
5 3 1 4 4 4 4 2 7 16 10 3 5 10 5 4 12 12 11 12 12 13 13 14 13 13 12 11 11 10 9 7 4 5 6 8 9 9 9 10 10 11 12 14 15 14 14 15 15
4 2 3 5 5 2 5 7 8 9 6 6 13 6 8 7 9 10 15 14 15 16 17 17 16 15 14 13 13 12 11 10 7 5 2 2 5 8 10 12 14 15 15 16 17 18 19 20 19
4 1 4 5 2 3 1 15 14 5 3 9 4 5 7 11 11 14 15 16 16 20 21 19 16 14 13 12 12 11 11 9 8 6 4 3 4 6 9 11 13 14 15 18 21 22 23 22 25
3 2 4 3 5 2 3 13 10 5 8 9 12 12 5 12 15 17 17 18 20 22 20 17 15 14 14 14 13 13 12 13 12 11 9 9 9 10 11 13 13 14 15 16 18 19 21 22 25
3 3 3 4 3 4 4 14 11 8 8 5 18 4 9 20 17 19 20 21 22 19 15 14 13 11 9 11 12 12 13 15 16 15 12 12 13 15 17 17 16 17 16 17 18 18 19 20 21
1 4 2 1 2 2 9 8 11 11 5 19 13 6 8 25 22 23 24 23 20 16 13 11 8 6 4 7 9 11 13 16 18 14 11 11 11 12 15 19 21 23 23 22 22 22 23 23 23
1 4 2 5 6 5 14 5 9 11 16 9 12 7 20 28 26 26 26 24 20 17 12 8 5 3 2 5 8 10 11 15 17 14 13 12 11 11 13 16 17 21 23 24 25 25 25 25 25
4 3 7 6 8 7 12 13 15 7 17 6 10 10 27 30 30 30 28 26 21 17 13 9 5 3 4 7 9 11 13 17 18 16 14 13 12 11 11 13 15 18 19 21 22 23 24 25 26
5 5 5 5 12 25 19 13 15 13 5 13 18 27 38 35 33 31 27 23 20 16 13 9 7 7 6 7 9 11 13 17 19 18 18 18 16 14 14 13 13 14 16 18 19 20 22 23 24
1 8 4 4 15 21 17 17 10 20 8 18 17 30 38 37 36 33 28 24 21 16 13 12 11 10 6 7 10 12 14 17 18 19 20 20 20 19 15 13 12 12 13 14 15 17 19 21 22
3 1 3 6 23 21 24 11 8 21 9 10 25 32 36 37 36 33 29 24 20 17 15 13 12 8 8 10 12 14 15 17 18 19 20 21 22 19 15 13 11 11 12 13 14 15 16 17 18
5 9 9 14 16 14 12 5 11 18 12 20 29 33 34 38 38 36 31 27 24 21 17 15 11 9 10 9 11 13 14 16 17 19 20 22 20 16 13 13 12 13 13 14 15 16 16 15 16
8 6 7 6 9 5 15 2 8 11 21 28 32 34 34 38 39 37 33 31 27 24 20 17 14 14 10 9 11 12 13 14 16 17 20 20 16 13 12 12 12 13 14 15 15 14 15 15 15
5 5 4 2 7 5 8 8 12 18 34 31 32 35 36 37 38 35 34 32 30 25 25 18 16 12 10 9 11 12 12 13 14 16 18 14 11 10 11 11 12 14 14 15 15 16 15 16 18
5 5 5 3 8 5 5 6 10 27 31 29 33 35 36 36 37 36 36 35 31 29 22 20 15 11 10 11 12 11 11 11 12 15 14 10 9 10 11 12 14 15 15 16 17 16 17 19 20
8 5 2 7 9 5 7 13 3 28 27 30 31 32 37 40 42 41 41 38 34 29 23 18 16 13 11 11 12 10 9 9 10 12 10 8 8 9 10 11 13 14 15 16 18 17 15 18 22
6 5 6 3 6 7 17 5 7 21 20 22 28 30 35 41 42 44 45 43 37 33 26 21 17 12 11 12 11 9 8 8 8 9 8 8 8 8 10 13 14 14 17 18 20 21 18 18 21
5 6 5 1 2 7 3 9 9 18 29 34 31 32 38 37 39 42 46 44 41 35 27 22 15 13 11 9 10 9 8 7 8 7 6 7 8 10 12 14 13 15 16 18 19 20 21 19 18
3 8 7 4 3 3 3 5 4 8 22 22 26 41 35 44 44 44 46 43 39 32 25 19 15 12 7 7 9 10 8 7 7 6 5 7 9 9 11 13 14 15 17 20 20 19 18 19 15
4 8 4 4 3 3 3 5 5 5 14 10 27 30 35 34 35 43 44 40 37 31 25 19 14 9 6 5 6 7 8 7 4 4 5 7 8 8 12 13 14 16 19 20 18 18 17 17 17
7 5 7 3 4 4 1 3 6 1 6 15 27 30 33 39 46 52 50 50 39 32 25 17 13 8 5 4 7 7 7 5 2 3 5 7 7 9 10 12 14 17 20 21 17 17 16 16 15
6 5 7 6 4 1 5 6 5 6 8 6 15 26 34 45 45 43 44 43 36 30 24 19 13 8 5 4 5 5 5 4 1 3 5 4 6 7 9 11 14 17 20 22 19 16 15 14 15
5 6 2 3 2 5 4 3 11 8 7 7 8 22 32 37 38 40 44 41 39 33 26 21 14 8 5 4 3 4 5 4 1 3 3 3 5 7 9 11 14 17 22 26 18 14 15 15 14
6 8 6 6 3 7 3 6 8 5 9 11 8 18 27 32 36 41 43 42 42 35 29 22 15 9 6 5 2 4 5 3 1 2 2 4 5 7 9 12 14 18 22 21 14 14 15 14 14
4 3 5 7 2 3 3 8 10 4 7 7 9 16 25 31 35 39 38 38 42 37 31 23 16 13 7 5 2 3 5 2 1 1 3 4 5 7 10 12 13 17 21 20 17 14 14 14 15
8 7 3 3 4 4 4 5 6 8 10 7 9 20 23 27 30 32 33 36 41 36 29 22 17 12 7 4 2 2 4 3 2 1 3 3 4 8 10 11 13 15 19 21 17 15 14 15 15
3 3 6 5 4 6 2 6 8 12 9 11 17 21 24 27 28 30 30 33 39 34 30 23 19 14 11 5 2 3 3 3 3 2 2 2 5 8 11 11 12 14 17 21 20 15 15 14 16
5 8 7 5 4 2 3 7 6 8 8 15 17 20 23 25 26 28 30 31 36 35 30 26 21 16 10 5 4 3 3 4 5 2 3 4 6 9 12 12 12 13 16 19 21 18 15 15 17
Wind_Direction
125 95 125 57 58 61 43 58 328 82 43 35 88 120 109 52 102 162 139 139 134 117 109 106 106 105 102 100 104 110 113 113 113 116 122 130 137 149 154 160 168 179 199 217 223 228 231 239 247
137 97 84 91 83 71 299 284 69 89 127 92 81 88 65 61 97 130 140 142 130 119 116 108 102 96 90 88 89 92 96 102 111 121 135 142 149 157 166 179 191 202 208 216 223 228 233 239 247
151 118 47 91 106 140 154 124 117 144 126 56 93 66 73 100 122 130 139 135 125 120 112 102 93 87 84 79 75 74 77 84 104 131 154 161 169 177 188 196 207 216 219 222 227 235 239 242 249
153 117 86 79 101 205 147 152 135 126 87 90 113 66 91 101 109 133 133 131 128 119 109 102 96 88 77 70 65 59 55 56 58 60 55 192 202 195 202 211 218 225 232 237 241 240 240 243 242
164 140 66 89 81 147 142 150 153 143 105 134 134 109 98 152 136 133 133 133 134 121 115 107 94 81 68 57 50 43 36 26 15 1 341 293 255 245 245 236 232 235 235 238 241 243 243 242 243
189 97 66 130 129 164 140 151 160 118 126 129 124 114 111 155 145 137 136 138 133 125 119 110 102 84 65 53 43 34 21 7 354 338 314 294 280 269 262 259 259 260 257 257 257 259 261 263 262
121 93 142 121 100 130 181 155 158 134 133 147 140 92 144 156 156 143 142 143 136 130 131 120 103 90 74 50 38 25 12 359 348 335 314 293 280 272 270 272 269 268 270 270 272 272 271 271 270
60 88 81 89 144 107 141 129 157 136 170 153 161 158 172 165 163 152 151 147 146 147 148 130 111 92 66 22 20 15 4 355 350 346 336 321 304 287 278 271 272 273 275 276 277 276 276 277 275
84 60 130 187 151 143 154 118 158 152 143 161 188 180 174 166 163 161 156 158 159 162 159 151 145 123 348 345 355 356 355 354 353 351 347 336 323 313 303 293 283 278 277 279 279 279 278 277 276
109 115 210 190 166 148 160 138 149 138 158 216 208 210 176 170 169 170 169 169 172 175 172 180 194 226 292 329 341 343 347 351 352 351 348 343 336 320 309 300 293 290 287 285 283 280 278 277 276
174 194 190 214 185 154 149 150 158 143 210 197 176 164 170 173 176 179 179 184 181 180 186 199 219 249 281 325 326 335 344 347 348 348 347 345 341 330 318 305 293 287 286 288 290 291 291 288 283
171 245 213 228 172 153 153 151 171 180 201 214 208 183 175 179 182 185 188 188 188 191 194 204 218 240 272 307 323 330 340 342 344 345 347 344 343 340 332 321 310 304 300 299 297 295 295 295 296
227 119 94 175 163 166 153 167 175 206 216 219 187 180 182 185 188 190 192 195 195 195 201 197 208 232 284 305 320 324 331 336 340 345 345 343 344 343 343 337 332 328 325 321 316 313 308 306 304
187 90 95 134 136 146 133 143 177 223 212 188 186 184 190 192 193 192 194 199 197 200 208 211 218 248 264 290 307 315 326 330 337 343 344 345 348 347 349 352 353 350 348 345 339 335 329 326 323
146 86 68 91 143 148 132 105 226 203 191 184 189 189 193 196 197 200 203 202 204 206 208 212 224 237 257 282 302 307 320 330 337 342 344 347 349 353 2 5 5 3 1 356 347 341 335 331 329
65 54 96 223 144 146 154 256 213 193 181 184 187 193 198 200 202 204 203 203 204 208 208 220 233 242 260 284 299 306 319 333 338 343 347 352 359 6 12 12 9 5 360 355 348 341 340 340 341
37 162 132 153 203 144 158 256 248 195 188 189 191 193 200 206 205 205 204 204 206 211 212 226 236 245 267 282 296 302 316 329 340 345 349 357 6 12 14 8 3 0 0 357 352 347 339 340 341
188 136 159 168 202 180 188 245 209 187 193 201 202 199 198 202 205 204 205 205 207 209 209 222 241 257 266 272 291 297 311 321 337 343 345 354 359 5 7 1 355 354 356 353 350 349 347 342 338
132 129 163 235 196 146 219 236 202 198 204 211 211 207 204 208 205 205 205 204 205 208 211 224 241 254 262 275 294 292 304 311 329 340 340 349 353 358 355 351 352 354 351 351 348 344 343 347 346
144 149 220 278 128 166 181 251 215 199 212 210 202 207 205 202 204 205 202 201 204 209 209 222 239 236 251 286 297 290 292 299 323 332 336 345 341 349 354 352 351 351 352 351 348 344 344 352 358
207 176 191 182 133 7 180 262 211 229 225 221 216 218 205 203 203 203 198 201 202 207 210 217 225 226 252 287 292 281 274 285 316 321 329 341 336 340 353 352 354 353 348 345 346 344 343 347 356
179 222 157 166 120 227 50 272 282 241 232 221 222 210 204 195 198 198 196 205 205 204 205 210 214 222 258 286 285 264 267 284 300 307 329 341 345 349 352 360 0 359 352 343 341 341 339 343 345
211 137 185 165 107 80 358 88 267 284 257 236 231 213 201 199 207 204 203 209 201 202 205 202 209 222 261 302 298 271 262 256 282 325 342 352 349 358 359 360 1 3 0 357 346 344 341 340 341
134 95 41 45 94 130 215 159 250 211 217 257 227 213 201 204 208 208 204 205 198 200 201 203 211 221 234 289 290 248 232 250 311 348 4 351 348 357 357 355 353 351 347 346 340 338 344 340 338
105 82 334 339 5 213 125 124 249 260 235 228 228 207 201 200 199 199 208 204 202 203 201 208 210 215 215 274 261 223 224 234 323 347 354 347 345 353 354 351 354 349 343 338 335 334 335 335 338
181 152 160 227 223 279 123 226 254 268 258 221 231 205 199 195 203 210 215 209 203 203 207 209 206 214 207 264 208 214 224 228 290 8 359 345 353 350 352 352 351 351 349 357 351 340 342 342 340
190 155 194 108 46 58 228 289 310 261 259 207 186 184 191 200 206 212 213 211 204 205 209 209 209 209 213 244 185 213 224 247 269 357 322 326 341 353 350 350 351 352 354 352 347 343 346 348 344
162 165 95 8 160 226 281 273 240 278 253 222 214 192 198 201 203 210 213 211 206 208 212 209 204 207 232 204 178 244 243 237 212 294 328 319 330 333 339 343 345 349 356 355 345 342 339 347 347
145 169 56 115 135 177 218 256 218 240 239 219 232 206 204 205 208 211 211 211 208 208 213 210 205 201 228 185 213 254 255 226 216 253 300 306 318 333 342 341 341 344 351 358 355 345 342 345 348
170 169 147 127 226 178 178 270 243 251 245 225 232 222 217 218 211 210 208 208 205 208 213 213 206 208 208 196 231 267 272 231 212 249 256 301 316 327 340 340 339 342 348 347 351 349 335 341 348